Weather History for Tracy, MN

Change the Weather History Date:

Monday, October 28, 2013

  Actual Average (KMML) Record (KMML)
Temperature  
Mean Temperature 36 °F -  
Max Temperature 43 °F 54 °F 76 °F (1966)
Min Temperature 29 °F 31 °F 10 °F (1967)
Degree Days  
Heating Degree Days 29    
Moisture  
Dew Point 26 °F    
Average Humidity 72    
Maximum Humidity 92    
Minimum Humidity 51    
Precipitation  
Precipitation 0.00 in - - ()
Sea Level Pressure  
Sea Level Pressure 30.32 in    
Wind  
Wind Speed 5 mph (NE)    
Max Wind Speed 17 mph    
Max Gust Speed 23 mph    
Visibility 10 miles    
Events      
Averages and records for this station are not official NWS values.
T = Trace of Precipitation, MM = Missing Value Source: NWS Daily Summary

Daily Weather History Graph

Daily Weather History Graph

Search for Another Location

Airport:

Trip Planner

Search our weather history database for the weather conditions in past years. The results will help you decide how hot, cold, wet, or windy it might be!

Date:

Astronomy

Oct. 28, 2013 Rise Set
Actual Time 7:54 AM CDT 6:17 PM CDT
Civil Twilight 7:24 AM CDT 6:47 PM CDT
Nautical Twilight 6:50 AM CDT 7:21 PM CDT
Astronomical Twilight 6:16 AM CDT 7:54 PM CDT
Moon 1:35 AM CDT (10/28) 3:11 PM CDT (10/28)
Length of Visible Light 11h 22m
Length of Day
10h 22m
Waning Crescent, 34% of the Moon is Illuminated
Oct 28
Waning Crescent
Nov 3
New
Nov 9
First Quarter
Nov 17
Full
Nov 25
Last Quarter

Hourly Weather History & Observations

Time (CDT) Temp. Windchill Dew Point Humidity Pressure Visibility Wind Dir Wind Speed Gust Speed Precip Events Conditions
12:17 AM 34.3 °F - 29.1 °F 81% 30.14 in 10.0 mi Calm Calm - N/A   Clear
12:37 AM 35.6 °F - 29.5 °F 78% 30.15 in 10.0 mi Calm Calm - N/A   Clear
12:57 AM 34.7 °F - 28.9 °F 79% 30.16 in 10.0 mi Calm Calm - N/A   Clear
1:17 AM 33.8 °F - 28.6 °F 81% 30.17 in 10.0 mi Calm Calm - N/A   Clear
1:37 AM 33.3 °F - 28.4 °F 82% 30.17 in 10.0 mi Calm Calm - N/A   Clear
1:58 AM 32.2 °F 25.8 °F 27.9 °F 84% 30.18 in 10.0 mi NNW 6.9 mph - N/A   Clear
2:18 AM 32.0 °F 28.7 °F 27.7 °F 84% 30.19 in 10.0 mi NNW 3.5 mph - N/A   Clear
2:38 AM 31.8 °F 25.4 °F 27.5 °F 84% 30.20 in 10.0 mi NNW 6.9 mph - N/A   Clear
2:58 AM 31.5 °F 24.2 °F 27.5 °F 85% 30.21 in 10.0 mi NNW 8.1 mph - N/A   Clear
3:18 AM 30.7 °F 23.3 °F 27.1 °F 86% 30.21 in 10.0 mi North 8.1 mph - N/A   Clear
3:38 AM 30.2 °F 23.4 °F 27.0 °F 88% 30.22 in 10.0 mi North 6.9 mph - N/A   Clear
3:58 AM 29.7 °F 22.8 °F 26.6 °F 88% 30.23 in 10.0 mi NNW 6.9 mph - N/A   Clear
4:17 AM 29.5 °F 21.8 °F 26.8 °F 90% 30.23 in 10.0 mi NNW 8.1 mph - N/A   Clear
4:37 AM 29.3 °F - 27.0 °F 91% 30.25 in 10.0 mi Calm Calm - N/A   Clear
4:58 AM 29.3 °F - 26.8 °F 90% 30.26 in 10.0 mi Calm Calm - N/A   Clear
5:17 AM 29.1 °F - 26.8 °F 91% 30.27 in 10.0 mi Calm Calm - N/A   Clear
5:38 AM 29.1 °F - 26.8 °F 91% 30.28 in 10.0 mi Calm Calm - N/A   Clear
5:58 AM 29.1 °F 21.3 °F 27.0 °F 92% 30.29 in 10.0 mi North 8.1 mph - N/A   Mostly Cloudy
6:18 AM 30.2 °F - 27.9 °F 91% 30.30 in 10.0 mi Calm Calm - N/A   Overcast
6:38 AM 31.1 °F 25.4 °F 28.4 °F 90% 30.31 in 10.0 mi North 5.8 mph - N/A   Overcast
6:58 AM 31.3 °F - 28.2 °F 88% 30.31 in 10.0 mi Calm Calm - N/A   Overcast
7:18 AM 31.5 °F - 27.7 °F 86% 30.32 in 10.0 mi Calm Calm - N/A   Overcast
7:38 AM 31.5 °F 22.9 °F 27.5 °F 85% 30.33 in 10.0 mi NNE 10.4 mph - N/A   Overcast
7:57 AM 31.1 °F 23.1 °F 27.3 °F 86% 30.34 in 10.0 mi NNE 9.2 mph - N/A   Overcast
8:17 AM 30.2 °F 22.6 °F 26.4 °F 86% 30.35 in 10.0 mi NNE 8.1 mph - N/A   Mostly Cloudy
8:38 AM 29.5 °F 21.8 °F 26.2 °F 88% 30.36 in 10.0 mi NNE 8.1 mph - N/A   Clear
8:58 AM 30.2 °F 21.9 °F 26.4 °F 86% 30.36 in 10.0 mi NE 9.2 mph - N/A   Clear
9:18 AM 31.3 °F 22.7 °F 27.3 °F 85% 30.37 in 10.0 mi NE 10.4 mph - N/A   Clear
9:38 AM 32.2 °F 22.7 °F 27.9 °F 84% 30.37 in 10.0 mi NE 12.7 mph - N/A   Clear
9:58 AM 33.6 °F 23.7 °F 28.6 °F 82% 30.38 in 10.0 mi ENE 15.0 mph - N/A   Scattered Clouds
10:18 AM 34.2 °F 24.4 °F 28.8 °F 81% 30.38 in 10.0 mi ENE 15.0 mph - N/A   Mostly Cloudy
10:38 AM 35.8 °F 26.9 °F 28.9 °F 76% 30.38 in 10.0 mi ENE 13.8 mph - N/A   Mostly Cloudy
10:57 AM 36.5 °F 26.7 °F 28.4 °F 72% 30.37 in 10.0 mi ENE 17.3 mph 23.0 mph N/A   Mostly Cloudy
11:17 AM 37.6 °F 28.4 °F 28.0 °F 68% 30.38 in 10.0 mi East 16.1 mph 23.0 mph N/A   Scattered Clouds
11:38 AM 37.8 °F 29.0 °F 28.2 °F 68% 30.40 in 10.0 mi East 15.0 mph - N/A   Mostly Cloudy
11:57 AM 37.8 °F 29.8 °F 28.2 °F 68% 30.40 in 10.0 mi East 12.7 mph - N/A   Overcast
12:17 PM 37.9 °F 30.0 °F 28.2 °F 68% 30.39 in 10.0 mi East 12.7 mph - N/A   Mostly Cloudy
12:37 PM 39.0 °F 31.0 °F 28.6 °F 66% 30.39 in 10.0 mi ENE 13.8 mph - N/A   Overcast
12:57 PM 39.4 °F - 28.8 °F 66% 30.38 in 10.0 mi Calm Calm - N/A   Mostly Cloudy
1:17 PM 39.7 °F 33.2 °F 28.4 °F 64% 30.38 in 10.0 mi East 10.4 mph - N/A   Scattered Clouds
1:37 PM 40.5 °F 33.6 °F 28.8 °F 63% 30.37 in 10.0 mi ENE 11.5 mph 19.6 mph N/A   Scattered Clouds
1:57 PM 40.6 °F 33.0 °F 28.0 °F 61% 30.35 in 10.0 mi ENE 13.8 mph 17.3 mph N/A   Mostly Cloudy
2:18 PM 41.9 °F 34.6 °F 28.2 °F 58% 30.35 in 10.0 mi ENE 13.8 mph 18.4 mph N/A   Scattered Clouds
2:38 PM 42.8 °F 35.8 °F 27.3 °F 54% 30.34 in 10.0 mi NE 13.8 mph 19.6 mph N/A   Clear
2:58 PM 42.1 °F 34.9 °F 26.1 °F 53% 30.35 in 10.0 mi ENE 13.8 mph 18.4 mph N/A   Scattered Clouds
3:17 PM 41.9 °F 34.0 °F 25.0 °F 51% 30.34 in 10.0 mi NE 16.1 mph 20.7 mph N/A   Scattered Clouds
3:37 PM 42.8 °F 36.2 °F 25.5 °F 51% 30.35 in 10.0 mi ENE 12.7 mph - N/A   Scattered Clouds
3:57 PM 42.4 °F 37.5 °F 25.5 °F 51% 30.35 in 10.0 mi ENE 8.1 mph - N/A   Mostly Cloudy
4:18 PM 43.2 °F 36.6 °F 26.2 °F 51% 30.34 in 10.0 mi ENE 12.7 mph - N/A   Overcast
4:37 PM 43.0 °F 36.8 °F 25.9 °F 51% 30.34 in 10.0 mi NE 11.5 mph - N/A   Overcast
4:57 PM 41.9 °F 34.0 °F 25.5 °F 52% 30.35 in 10.0 mi NE 16.1 mph - N/A   Overcast
5:18 PM 41.5 °F 35.4 °F 24.8 °F 51% 30.35 in 10.0 mi ENE 10.4 mph - N/A   Overcast
5:38 PM 41.0 °F 34.7 °F 24.6 °F 52% 30.35 in 10.0 mi ENE 10.4 mph - N/A   Scattered Clouds
5:58 PM 39.2 °F 33.6 °F 23.5 °F 53% 30.35 in 10.0 mi NE 8.1 mph - N/A   Clear
6:18 PM 37.9 °F 32.7 °F 23.5 °F 56% 30.35 in 10.0 mi NE 6.9 mph - N/A   Clear
6:38 PM 36.7 °F 32.0 °F 23.4 °F 59% 30.35 in 10.0 mi ENE 5.8 mph - N/A   Clear
6:57 PM 35.6 °F 32.8 °F 23.0 °F 60% 30.35 in 10.0 mi NE 3.5 mph - N/A   Clear
7:17 PM 34.7 °F - 23.0 °F 62% 30.35 in 10.0 mi Calm Calm - N/A   Clear
7:38 PM 33.8 °F 27.0 °F 23.0 °F 65% 30.35 in 10.0 mi NE 8.1 mph - N/A   Clear
7:58 PM 33.8 °F 26.4 °F 23.4 °F 66% 30.35 in 10.0 mi NE 9.2 mph - N/A   Clear
8:18 PM 33.3 °F - 23.0 °F 66% 30.35 in 10.0 mi Calm Calm - N/A   Clear
8:37 PM 33.3 °F - 23.2 °F 67% 30.35 in 10.0 mi Calm Calm - N/A   Clear
8:57 PM 33.4 °F - 23.0 °F 66% 30.35 in 10.0 mi Calm Calm - N/A   Clear
9:17 PM 32.2 °F - 22.8 °F 68% 30.35 in 10.0 mi Calm Calm - N/A   Clear
9:38 PM 32.0 °F - 22.6 °F 68% 30.35 in 10.0 mi Calm Calm - N/A   Clear
9:58 PM 32.0 °F - 23.0 °F 69% 30.36 in 10.0 mi Calm Calm - N/A   Mostly Cloudy
10:18 PM 32.9 °F - 23.5 °F 68% 30.36 in 10.0 mi Calm Calm - N/A   Overcast
10:38 PM 33.3 °F - 23.7 °F 68% 30.36 in 10.0 mi Calm Calm - N/A   Overcast
10:57 PM 33.3 °F - 23.4 °F 67% 30.36 in 10.0 mi Calm Calm - N/A   Overcast
11:17 PM 33.4 °F - 23.5 °F 67% 30.34 in 10.0 mi Calm Calm - N/A   Overcast
11:37 PM 33.1 °F - 23.4 °F 67% 30.34 in 10.0 mi Calm Calm - N/A   Mostly Cloudy
11:58 PM 32.9 °F - 23.0 °F 67% 30.33 in 10.0 mi Calm Calm - N/A   Mostly Cloudy